Terminal Aerodrome Forecast
Issued by NWS

Home | Current Version | Previous Version | Text Only | Print | Product List | Glossary On
Versions: 1 2 3 4 5 6 7 8 9 10 11 12 13
085
FTUS41 KLWX 291125
TAFMTN
TAF
KMTN 291125Z 2912/3012 24007KT P6SM SCT035 BKN110
     FM291400 25009KT P6SM FEW035 SCT110
     FM292000 23009KT P6SM VCTS BKN060CB
     FM300200 VRB03KT P6SM BKN140
     FM300600 VRB03KT P6SM BKN030
     FM300900 07004KT 4SM BR BKN008=

USA.gov is the U.S. government's official web portal to all federal, state and local government web resources and services.